Regional Weather Roundup
Issued by NWS

Home | Current Version | Previous Version | Text Only | Print | Product List | Glossary Off
Versions: 1 2 3 4 5 6 7 8 9 10 11 12 13 14 15 16 17 18 19 20 21 22 23 24 25 26 27 28 29 30 31 32 33 34 35 36 37 38 39 40 41 42 43 44 45 46 47 48 49 50

000
ASUS43 KMKX 222121
RWRWI

WISCONSIN REGIONAL WEATHER ROUNDUP
NATIONAL WEATHER SERVICE MILWAUKEE/SULLIVAN WI
400 PM CDT SAT APR 22 2017

NOTE: "FAIR" INDICATES FEW OR NO CLOUDS BELOW 12,000 FEET WITH NO
SIGNIFICANT WEATHER AND/OR OBSTRUCTIONS TO VISIBILITY.

WIZ001-002-006>008-014>016-023>028-222200-
NORTHWEST WISCONSIN

CITY           SKY/WX    TMP DP  RH WIND       PRES   REMARKS
SUPERIOR ARPT  MOSUNNY   69  35  28 W21G28    30.06F
ASHLAND        SUNNY     71  31  22 W13       30.05F
HAYWARD        SUNNY     66  29  24 SW15G23   30.10F
SIREN          SUNNY     67  32  27 W7G17     30.12F
CUMBERLAND     SUNNY     64  32  29 W12       30.13F
RICE LAKE      SUNNY     66  32  27 SW12G17   30.15F
CHETEK         SUNNY     66  33  29 W10       30.14F
LADYSMITH      SUNNY     66  31  27 SW14      30.14F
EAU CLAIRE     SUNNY     66  29  24 VRB6G18   30.14F
MENOMONIE      SUNNY     67  31  26 W9        30.15F
NEW RICHMOND   SUNNY     67  30  24 W13       30.15F
OSCEOLA        SUNNY     68  35  29 W13       30.16F
$$

WIZ003>005-009-010-017-018-222200-
NORTH CENTRAL WISCONSIN

CITY           SKY/WX    TMP DP  RH WIND       PRES   REMARKS
MANITOWISH WTR SUNNY     65  28  24 SW14G20   30.08F
ARBOR VITAE    SUNNY     66  26  22 W10G20    30.09F
WOODRUFF       SUNNY     66  26  22 W10G20    30.09F
RHINELANDER    SUNNY     66  27  23 W12       30.11F
EAGLE RIVER    SUNNY     65  23  19 W13G22    30.09F
LAND O LAKES   SUNNY     66  23  19 SW8       30.09F
PHILLIPS       SUNNY     66  31  27 SW10      30.10F
TOMAHAWK       SUNNY     64  26  24 W13G18    30.13S
MEDFORD        SUNNY     61  33  35 SW9G18    30.14F
MERRILL        SUNNY     64  30  28 SW7       30.13F
$$

WIZ029-030-035-036-043>047-222200-
CENTRAL WISCONSIN

CITY           SKY/WX    TMP DP  RH WIND       PRES   REMARKS
WAUSAU         MOSUNNY   63  31  30 W12       30.13F
MOSINEE        MOSUNNY   63  30  29 W10G17    30.15F
MARSHFIELD     CLOUDY    63  27  25 W8        30.14F
STEVENS POINT  SUNNY     61  28  27 W6        30.15F
WAUPACA        SUNNY     67  19  15 S6        30.15F
WAUTOMA        SUNNY     64  22  20 W8        30.15F
WISC RAPIDS    SUNNY     65  25  22 VRB6      30.16F
CAMP DOUGLAS   SUNNY     64  28  25 SE3       30.15F
$$

WIZ011>013-019>022-031-037>040-048>050-222200-
NORTHEAST WISCONSIN

CITY           SKY/WX    TMP DP  RH WIND       PRES   REMARKS
ANTIGO         SUNNY     62  31  31 W5        30.13F
SHAWANO        SUNNY     67  26  21 SW8       30.12F
OCONTO         SUNNY     62  27  26 SE13      30.12F
STURGEON BAY   SUNNY     61  26  26 SW3       30.14F
GREEN BAY      SUNNY     63  33  32 SW8       30.14F
MANITOWOC      SUNNY     55  28  35 SE8       30.16F
APPLETON       MOSUNNY   63  21  20 VRB5      30.14F
CLINTONVILLE   SUNNY     64  27  24 S7        30.13F
OSHKOSH        SUNNY     60  32  34 E5        30.16F
$$

WIZ032>034-041-042-053>061-222200-
SOUTHWEST WISCONSIN

CITY           SKY/WX    TMP DP  RH WIND       PRES   REMARKS
LA CROSSE      SUNNY     67  21  17 NW3       30.17F
SPARTA         SUNNY     65  29  25 SW8       30.17F
VIROQUA        SUNNY     63  25  23 CALM      30.17F
BOSCOBEL       SUNNY     67  23  19 VRB3      30.16F
PRAIRIE DU CHI SUNNY     64  21  19 NW7       30.17F
PLATTEVILLE    SUNNY     62  30  29 N8        30.18F
$$

WIZ056-057-062-063-064-067-068-222200-
SOUTH CENTRAL WISCONSIN

CITY           SKY/WX    TMP DP  RH WIND       PRES   REMARKS
REEDSBURG      SUNNY     63  25  24 NW3       30.16F
BARABOO/DELLS  SUNNY     63  21  20 CALM      30.16F
LONE ROCK      SUNNY     66  23  19 N6        30.16F
MINERAL POINT  SUNNY     64  21  19 NE3       30.17F
MADISON        MOSUNNY   62  27  26 CALM      30.16F
MIDDLETON      SUNNY     64  27  24 CALM      30.17F
WATERTOWN      SUNNY     61  31  32 W3        30.16F
MONROE         SUNNY     61  30  31 N5        30.16F
JANESVILLE     MOSUNNY   64  25  22 NE12      30.15F
$$

WIZ051-052-058>065-066-070>072-222200-
SOUTHEAST WISCONSIN

CITY           SKY/WX    TMP DP  RH WIND       PRES   REMARKS
MILWAUKEE      MOSUNNY   57  25  29 E8        30.19F
WAUKESHA       SUNNY     59  25  27 NE5       30.18F
MILWAUKEE/TIMM SUNNY     57  12  17 E7        30.18F
RACINE         SUNNY     56  23  27 NE7       30.20F
KENOSHA        SUNNY     58  24  27 NE9       30.18F
FOND DU LAC    SUNNY     62  30  29 VRB5      30.16F
SHEBOYGAN      SUNNY     59  29  31 VRB5      30.16F
WEST BEND      SUNNY     61  28  29 NE3       30.16F
JUNEAU         SUNNY     61  30  31 NE5       30.17F
$$

LSZ147-162-222200-
LAKE SUPERIOR

STATION/POSITION TIME  TEMP    WIND        PRES    WAVE
                       AIR SEA DIR/SP/G            HT/PER
                 (UTC) (F)     (DEG/KT/KT) (MB)    (FT/S)
DEVILS ISLAND    2100   54     230/ 15/ 19 1017.2F
PORT WING        2040   64     250/ 12/ 16 1017.9F
SAXON HARBOR     2040   68     240/ 13/ 21 1017.3F
$$

LMZ867-665-643>646-222200-
LAKE MICHIGAN

STATION/POSITION TIME  TEMP    WIND        PRES    WAVE
                       AIR SEA DIR/SP/G            HT/PER
                 (UTC) (F)     (DEG/KT/KT) (MB)    (FT/S)
CHAMBERS ISLAND  2040   58     170/  6/ 13 1019.6F
N MID LAKE BUOY  2050   40 37  180/ 10/ 12 1021.8F   0
NORTHPORT PIER   2040   51     160/  9/ 13 1020.0F
KEWAUNEE LAKESHO 2054   44     180/ 10/ 11 1020.8F
SHEBOYGAN LAKESH 2100   45     160/  6/  6 1021.8F
PORT WASHINGTON  2030   49     120/  3/  4 1023.0F
MILWAUKEE LAKESH 2050   47     100/  3/  4   N/A
KENOSHA   LAKESH 2100   46      50/  8/ 12 1022.0
$$

TC  - TEMPERATURE IN CELSIUS
VSB - VISIBILITY IN STATUTE MILES
WCI - WIND CHILL INDEX
HX  - HEAT INDEX





USA.gov is the U.S. government's official web portal to all federal, state and local government web resources and services.